Torna al catalogo

STARLINK-5971

AttivoComunicazioniVLEO
NORAD 56917·PAYLOAD·🇺🇸 United States

Lanciato Jun 12, 2023 da Cape Canaveral Space Force Station

Loading…

Prossimi Passaggi (prossime 24 ore)

TLE

AggiornatoSource: CelesTrak SupGP

Epoca: Sep 15, 2026, 02:22 UTC

1 56917C 23083AT  26258.09909722 -.00020384  00000+0 -73809-3 0  2581
2 56917  43.0036  81.1954 0002131 278.2864  78.5267 15.27596770    13

Traccia STARLINK-5971 in tempo reale con AllMySat

Download on the App Store